OCI705 YBBN-YPAD

Flight info

Callsign OCI705
Flight time 2h 40m
Altitude 34000
Route SANEG2/01R SANEG Q4 PAVBI Q16 MIA Q4 WOONA Q60 KAKLU
Aircraft A320/M-SDE3FGHIRWY/LB1

Departure

Time 2025-09-09 08:19
Airport Brisbane International Airport (YBBN)

Arrival

Time 2025-09-09 11:00
Airport Adelaide International Airport (YPAD)
Time Latitude Longitude Altitude Speed Heading
2025-09-09 07:56 -27.38652 153.12038 18 ft 0 kts 316°
2025-09-09 07:58 -27.38613 153.12076 18 ft 0 kts 305°
2025-09-09 08:09 -27.38639 153.12103 18 ft 3 kts 345°
2025-09-09 08:10 -27.38659 153.12106 19 ft 3 kts
2025-09-09 08:10 -27.38697 153.12096 18 ft 3 kts 14°
2025-09-09 08:11 -27.38733 153.12079 19 ft 3 kts 39°
2025-09-09 08:11 -27.38756 153.12044 18 ft 2 kts 77°
2025-09-09 08:12 -27.38757 153.12039 18 ft 0 kts 78°
2025-09-09 08:13 -27.38756 153.12044 18 ft 2 kts 80°
2025-09-09 08:14 -27.38762 153.12138 20 ft 10 kts 118°
2025-09-09 08:14 -27.38841 153.12274 18 ft 12 kts 182°
2025-09-09 08:15 -27.39006 153.12181 18 ft 14 kts 206°
2025-09-09 08:15 -27.39167 153.12092 19 ft 17 kts 206°
2025-09-09 08:16 -27.39408 153.11953 18 ft 11 kts 207°
2025-09-09 08:16 -27.39558 153.12072 19 ft 13 kts 117°
2025-09-09 08:17 -27.39584 153.12127 19 ft 8 kts 117°
2025-09-09 08:17 -27.39542 153.12246 20 ft 14 kts 28°
2025-09-09 08:18 -27.38769 153.12685 21 ft 119 kts 27°
2025-09-09 08:18 -27.37016 153.13766 848 ft 145 kts 36°
2025-09-09 08:19 -27.35542 153.15424 1867 ft 157 kts 42°
2025-09-09 08:19 -27.33825 153.17455 2216 ft 203 kts 43°
2025-09-09 08:20 -27.30422 153.21463 3293 ft 260 kts 44°
2025-09-09 08:20 -27.29327 153.23112 4017 ft 269 kts 61°
2025-09-09 08:21 -27.28527 153.27264 5488 ft 280 kts 88°
2025-09-09 08:21 -27.28345 153.31659 5979 ft 282 kts 87°
2025-09-09 08:22 -27.28182 153.36033 6006 ft 282 kts 95°
2025-09-09 08:22 -27.30006 153.39681 6005 ft 272 kts 150°
2025-09-09 08:23 -27.33554 153.40648 6002 ft 264 kts 179°
2025-09-09 08:23 -27.37257 153.40945 6906 ft 268 kts 183°
2025-09-09 08:24 -27.40923 153.40100 8133 ft 281 kts 199°
2025-09-09 08:24 -27.46706 153.38167 10151 ft 296 kts 205°
2025-09-09 08:25 -27.48553 153.37079 10554 ft 309 kts 216°
2025-09-09 08:25 -27.52087 153.33809 10806 ft 351 kts 222°
2025-09-09 08:26 -27.55836 153.29903 11377 ft 375 kts 232°
2025-09-09 08:26 -27.58467 153.24825 12568 ft 378 kts 244°
2025-09-09 08:27 -27.61027 153.19613 13748 ft 384 kts 234°
2025-09-09 08:27 -27.65001 153.15570 14809 ft 391 kts 213°
2025-09-09 08:28 -27.69722 153.12444 15825 ft 395 kts 213°
2025-09-09 08:28 -27.76878 153.07678 17369 ft 401 kts 214°
2025-09-09 08:29 -27.79286 153.06068 17891 ft 403 kts 214°
2025-09-09 08:29 -27.83833 153.02385 18824 ft 402 kts 225°
2025-09-09 08:30 -27.88061 152.98199 19728 ft 406 kts 225°
2025-09-09 08:30 -27.92340 152.93971 20607 ft 410 kts 225°
2025-09-09 08:31 -27.96657 152.89696 21397 ft 414 kts 225°
2025-09-09 08:31 -27.99871 152.86508 21966 ft 417 kts 225°
2025-09-09 08:32 -28.04260 152.82150 22674 ft 422 kts 225°
2025-09-09 08:32 -28.08704 152.77735 23354 ft 427 kts 226°
2025-09-09 08:33 -28.13189 152.73274 23988 ft 431 kts 226°
2025-09-09 08:33 -28.17689 152.68801 24835 ft 428 kts 226°
2025-09-09 08:35 -28.28233 152.58297 27265 ft 415 kts 227°
2025-09-09 08:37 -28.43690 152.40276 31320 ft 383 kts 238°
2025-09-09 08:39 -28.56101 152.22276 34108 ft 373 kts 238°
2025-09-09 08:41 -28.69013 152.03491 34116 ft 383 kts 238°
2025-09-09 08:43 -28.82119 151.84288 34130 ft 384 kts 238°
2025-09-09 08:45 -28.95015 151.65339 36114 ft 367 kts 239°
2025-09-09 08:47 -29.07209 151.46729 36134 ft 366 kts 240°
2025-09-09 08:49 -29.19426 151.28114 36142 ft 365 kts 240°
2025-09-09 08:51 -29.31400 151.09357 36135 ft 364 kts 241°
2025-09-09 08:53 -29.43265 150.90556 36145 ft 363 kts 241°
2025-09-09 08:55 -29.55073 150.71756 36139 ft 362 kts 241°
2025-09-09 08:57 -29.66836 150.52963 36140 ft 362 kts 242°
2025-09-09 08:58 -29.76614 150.37244 36120 ft 364 kts 242°
2025-09-09 09:01 -29.89898 150.15834 36105 ft 366 kts 243°
2025-09-09 09:03 -30.01754 149.96607 36095 ft 369 kts 243°
2025-09-09 09:05 -30.13618 149.77295 36091 ft 369 kts 243°
2025-09-09 09:07 -30.25438 149.57937 36087 ft 368 kts 243°
2025-09-09 09:09 -30.37219 149.38549 36086 ft 367 kts 244°
2025-09-09 09:11 -30.48945 149.19164 36072 ft 367 kts 244°
2025-09-09 09:13 -30.60644 148.99721 36062 ft 368 kts 244°
2025-09-09 09:14 -30.70892 148.82619 36066 ft 369 kts 244°
2025-09-09 09:17 -30.83988 148.60680 36043 ft 369 kts 244°
2025-09-09 09:19 -30.95660 148.41001 36033 ft 369 kts 244°
2025-09-09 09:21 -31.07277 148.21305 36035 ft 368 kts 245°
2025-09-09 09:23 -31.18737 148.01594 36031 ft 366 kts 246°
2025-09-09 09:25 -31.29943 147.81821 36026 ft 364 kts 246°
2025-09-09 09:26 -31.39686 147.64604 36031 ft 362 kts 246°
2025-09-09 09:29 -31.51581 147.43435 36013 ft 360 kts 247°
2025-09-09 09:31 -31.62557 147.23842 35998 ft 359 kts 247°
2025-09-09 09:33 -31.73488 147.04190 35988 ft 360 kts 247°
2025-09-09 09:35 -31.84382 146.84531 35988 ft 359 kts 247°
2025-09-09 09:37 -31.96618 146.62331 35978 ft 359 kts 248°
2025-09-09 09:39 -32.06012 146.45192 35974 ft 358 kts 248°
2025-09-09 09:41 -32.17667 146.23806 35961 ft 357 kts 249°
2025-09-09 09:43 -32.27033 146.06536 35950 ft 356 kts 249°
2025-09-09 09:45 -32.37662 145.86849 35946 ft 355 kts 249°
2025-09-09 09:46 -32.46931 145.69604 35945 ft 355 kts 250°
2025-09-09 09:49 -32.58804 145.47392 35941 ft 354 kts 250°
2025-09-09 09:50 -32.67898 145.30259 35946 ft 354 kts 250°
2025-09-09 09:53 -32.79683 145.07977 35950 ft 355 kts 251°
2025-09-09 09:54 -32.88818 144.90610 35947 ft 354 kts 251°
2025-09-09 09:57 -33.00503 144.68278 35955 ft 353 kts 252°
2025-09-09 09:59 -33.10694 144.48690 35964 ft 353 kts 252°
2025-09-09 10:01 -33.21684 144.27412 35981 ft 350 kts 252°
2025-09-09 10:03 -33.29434 144.11876 35958 ft 352 kts 251°
2025-09-09 10:05 -33.41008 143.89795 35959 ft 351 kts 252°
2025-09-09 10:07 -33.49757 143.72214 35959 ft 348 kts 255°
2025-09-09 10:09 -33.58936 143.51716 35966 ft 349 kts 255°
2025-09-09 10:11 -33.68059 143.31446 35961 ft 350 kts 255°
2025-09-09 10:13 -33.77277 143.10811 35966 ft 351 kts 255°
2025-09-09 10:15 -33.86470 142.90098 35969 ft 351 kts 255°
2025-09-09 10:17 -33.95936 142.68671 35944 ft 366 kts 255°
2025-09-09 10:18 -34.04268 142.49698 35964 ft 366 kts 255°
2025-09-09 10:21 -34.14489 142.26263 35969 ft 362 kts 255°
2025-09-09 10:23 -34.23298 142.05451 35972 ft 358 kts 259°
2025-09-09 10:25 -34.30837 141.83103 35982 ft 360 kts 259°
2025-09-09 10:27 -34.38363 141.60613 35978 ft 362 kts 259°
2025-09-09 10:29 -34.45909 141.37932 35982 ft 364 kts 259°
2025-09-09 10:31 -34.53771 141.14066 35979 ft 390 kts 258°
2025-09-09 10:33 -34.61827 140.89475 35989 ft 394 kts 258°
2025-09-09 10:35 -34.69906 140.64583 35977 ft 398 kts 258°
2025-09-09 10:37 -34.74125 140.38944 35991 ft 385 kts 273°
2025-09-09 10:38 -34.75019 140.16097 35995 ft 388 kts 273°
2025-09-09 10:41 -34.76128 139.86486 36007 ft 391 kts 273°
2025-09-09 10:42 -34.76935 139.63350 29947 ft 389 kts 275°
2025-09-09 10:44 -34.77481 139.46305 24442 ft 422 kts 274°
2025-09-09 10:44 -34.78555 139.39168 22281 ft 429 kts 256°
2025-09-09 10:45 -34.80928 139.32766 20222 ft 405 kts 251°
2025-09-09 10:45 -34.83263 139.26596 17813 ft 398 kts 250°
2025-09-09 10:46 -34.85560 139.20495 16124 ft 397 kts 249°
2025-09-09 10:46 -34.87838 139.14466 15077 ft 385 kts 249°
2025-09-09 10:46 -34.88954 139.11525 14523 ft 380 kts 249°
2025-09-09 10:47 -34.93237 139.00195 11099 ft 365 kts 248°
2025-09-09 10:48 -34.95285 138.94755 10617 ft 341 kts 248°
2025-09-09 10:48 -34.97204 138.89654 10133 ft 319 kts 248°
2025-09-09 10:49 -34.98103 138.87270 9913 ft 300 kts 247°
2025-09-09 10:49 -34.99784 138.82796 9653 ft 289 kts 248°
2025-09-09 10:50 -35.01457 138.78327 9387 ft 290 kts 247°
2025-09-09 10:50 -35.03128 138.73843 9124 ft 290 kts 246°
2025-09-09 10:50 -35.03964 138.71601 8947 ft 291 kts 246°
2025-09-09 10:51 -35.06500 138.64807 7829 ft 292 kts 245°
2025-09-09 10:52 -35.08161 138.60350 7351 ft 278 kts 244°
2025-09-09 10:52 -35.09714 138.56169 6525 ft 267 kts 244°
2025-09-09 10:53 -35.11232 138.52081 5540 ft 262 kts 244°
2025-09-09 10:53 -35.12278 138.47906 4819 ft 249 kts 267°
2025-09-09 10:54 -35.11439 138.43865 3640 ft 251 kts 309°
2025-09-09 10:54 -35.08656 138.41804 3181 ft 220 kts 349°
2025-09-09 10:54 -35.07217 138.41671 3014 ft 199 kts
2025-09-09 10:55 -35.04590 138.42246 2392 ft 188 kts 14°
2025-09-09 10:56 -35.01330 138.43894 1719 ft 152 kts 45°
2025-09-09 10:56 -34.99931 138.45776 1306 ft 150 kts 56°
2025-09-09 10:57 -34.98658 138.47624 915 ft 138 kts 54°
2025-09-09 10:57 -34.97579 138.49188 597 ft 138 kts 54°
2025-09-09 10:57 -34.96970 138.50070 416 ft 137 kts 53°
2025-09-09 10:58 -34.95283 138.52553 28 ft 108 kts 49°
2025-09-09 10:58 -34.94912 138.53097 28 ft 58 kts 50°
2025-09-09 10:59 -34.94612 138.53519 28 ft 14 kts 29°
2025-09-09 11:00 -34.94351 138.53570 27 ft 16 kts 51°
2025-09-09 11:00 -34.94224 138.53641 29 ft 13 kts 327°
2025-09-09 11:01 -34.94088 138.53783 31 ft 17 kts 48°
2025-09-09 11:01 -34.94028 138.53869 30 ft 8 kts 50°
2025-09-09 11:02 -34.93966 138.53885 30 ft 6 kts 319°
2025-09-09 11:02 -34.93928 138.53847 30 ft 1 kts 321°
2025-09-09 11:02 -34.93926 138.53845 29 ft 0 kts 320°